Time,TemperatureF,DewpointF,PressureIn,WindDirection,WindDirectionDegrees,WindSpeedMPH,WindSpeedGustMPH,Humidity,HourlyPrecipIn,Conditions,Clouds,dailyrainin,SoftwareType,DateUTC
2013-05-28 00:01:00,75.1,71.0,29.88,ESE,118,14.0,14.0,87,0.00,RA,,0.00,WeatherDisplay:10.37,2013-05-28 05:01:00,
2013-05-28 00:06:00,75.0,70.9,29.88,SSE,164,17.3,17.3,87,0.00,RA,,0.00,WeatherDisplay:10.37,2013-05-28 05:06:00,
2013-05-28 00:11:00,75.0,70.9,29.88,SSE,167,12.7,12.7,87,0.00,CLR,,0.00,WeatherDisplay:10.37,2013-05-28 05:11:00,
2013-05-28 00:16:00,75.0,71.2,29.89,SE,139,8.1,8.1,88,0.00,CLR,,0.00,WeatherDisplay:10.37,2013-05-28 05:16:00,
2013-05-28 00:21:00,74.9,71.1,29.89,SE,130,13.8,13.8,88,0.00,CLR,,0.00,WeatherDisplay:10.37,2013-05-28 05:21:00,
2013-05-28 00:26:00,75.0,71.2,29.89,SSE,165,11.5,11.5,88,0.00,CLR,,0.00,WeatherDisplay:10.37,2013-05-28 05:26:00,
2013-05-28 00:31:00,74.9,71.1,29.89,SSE,165,11.5,11.5,88,0.00,CLR,,0.00,WeatherDisplay:10.37,2013-05-28 05:31:00,
2013-05-28 00:36:00,74.9,71.1,29.89,SSE,153,16.1,16.1,88,0.00,CLR,,0.00,WeatherDisplay:10.37,2013-05-28 05:36:00,
2013-05-28 00:41:00,75.0,71.2,29.89,SSE,150,16.1,16.1,88,0.00,CLR,,0.00,WeatherDisplay:10.37,2013-05-28 05:41:00,
2013-05-28 00:46:00,74.9,71.1,29.89,ESE,116,16.0,16.0,88,0.00,CLR,,0.00,WeatherDisplay:10.37,2013-05-28 05:46:00,
2013-05-28 00:51:00,75.0,71.2,29.89,SSE,148,12.7,12.7,88,0.00,CLR,,0.00,WeatherDisplay:10.37,2013-05-28 05:51:00,
2013-05-28 00:56:00,74.9,71.1,29.88,ESE,117,12.7,12.7,88,0.00,CLR,,0.00,WeatherDisplay:10.37,2013-05-28 05:56:00,
2013-05-28 01:01:00,74.8,71.3,29.88,SE,129,12.7,12.7,89,0.00,CLR,,0.00,WeatherDisplay:10.37,2013-05-28 06:01:00,
2013-05-28 01:06:00,74.8,71.3,29.88,SSE,150,16.1,16.1,89,0.00,CLR,,0.00,WeatherDisplay:10.37,2013-05-28 06:06:00,
2013-05-28 01:11:00,74.8,71.3,29.88,SE,139,18.4,18.4,89,0.00,CLR,,0.00,WeatherDisplay:10.37,2013-05-28 06:11:00,
2013-05-28 01:16:00,74.8,71.3,29.88,SSE,160,11.5,11.5,89,0.00,CLR,,0.00,WeatherDisplay:10.37,2013-05-28 06:16:00,
2013-05-28 01:21:00,74.8,71.3,29.88,SSE,150,12.7,12.7,89,0.00,CLR,,0.00,WeatherDisplay:10.37,2013-05-28 06:21:00,
2013-05-28 01:26:00,74.8,71.3,29.88,WNW,296,13.8,13.8,89,0.00,CLR,,0.00,WeatherDisplay:10.37,2013-05-28 06:26:00,
2013-05-28 01:31:00,74.8,71.3,29.88,ESE,116,12.7,12.7,89,0.00,CLR,,0.00,WeatherDisplay:10.37,2013-05-28 06:31:00,
2013-05-28 01:36:00,74.7,71.2,29.87,SSE,151,12.7,12.7,89,0.00,CLR,,0.00,WeatherDisplay:10.37,2013-05-28 06:36:00,
2013-05-28 01:41:00,74.7,71.2,29.87,SSE,163,16.1,16.1,89,0.00,CLR,,0.00,WeatherDisplay:10.37,2013-05-28 06:41:00,
2013-05-28 01:46:00,74.7,71.2,29.87,SSE,156,15.0,15.0,89,0.00,CLR,,0.00,WeatherDisplay:10.37,2013-05-28 06:46:00,
2013-05-28 01:51:00,74.7,71.2,29.87,SSE,160,11.5,11.5,89,0.00,CLR,,0.00,WeatherDisplay:10.37,2013-05-28 06:51:00,
2013-05-28 01:56:00,74.7,71.2,29.86,ESE,119,9.2,9.2,89,0.00,CLR,,0.00,WeatherDisplay:10.37,2013-05-28 06:56:00,
2013-05-28 02:01:00,74.7,71.2,29.86,SE,129,17.3,17.3,89,0.00,CLR,,0.00,WeatherDisplay:10.37,2013-05-28 07:01:00,
2013-05-28 02:06:00,74.7,71.2,29.86,SE,125,17.3,17.3,89,0.00,CLR,,0.00,WeatherDisplay:10.37,2013-05-28 07:06:00,
2013-05-28 02:11:00,74.7,70.9,29.86,SE,129,15.0,15.0,88,0.00,CLR,,0.00,WeatherDisplay:10.37,2013-05-28 07:11:00,
2013-05-28 02:16:00,74.7,70.9,29.86,SE,136,16.1,16.1,88,0.00,CLR,,0.00,WeatherDisplay:10.37,2013-05-28 07:16:00,
2013-05-28 02:21:00,74.7,70.9,29.86,ESE,115,16.1,16.1,88,0.00,CLR,,0.00,WeatherDisplay:10.37,2013-05-28 07:21:00,
2013-05-28 02:26:00,74.6,70.8,29.86,SSE,163,16.1,16.1,88,0.00,CLR,,0.00,WeatherDisplay:10.37,2013-05-28 07:26:00,
2013-05-28 02:31:00,74.5,70.7,29.86,SE,136,12.7,12.7,88,0.00,CLR,,0.00,WeatherDisplay:10.37,2013-05-28 07:31:00,
2013-05-28 02:36:00,74.5,70.7,29.85,SE,135,13.8,13.8,88,0.00,CLR,,0.00,WeatherDisplay:10.37,2013-05-28 07:36:00,
2013-05-28 02:41:00,74.5,70.7,29.85,SE,138,12.7,12.7,88,0.00,CLR,,0.00,WeatherDisplay:10.37,2013-05-28 07:41:00,
2013-05-28 02:46:00,74.5,70.7,29.85,ESE,118,12.7,12.7,88,0.00,CLR,,0.00,WeatherDisplay:10.37,2013-05-28 07:46:00,
2013-05-28 02:51:00,74.5,70.7,29.84,SE,145,19.6,19.6,88,0.00,CLR,,0.00,WeatherDisplay:10.37,2013-05-28 07:51:00,
2013-05-28 02:56:00,74.4,70.6,29.84,SE,129,11.5,11.5,88,0.00,CLR,,0.00,WeatherDisplay:10.37,2013-05-28 07:56:00,
2013-05-28 03:01:00,74.6,70.8,29.84,SE,129,19.6,19.6,88,0.00,CLR,,0.00,WeatherDisplay:10.37,2013-05-28 08:01:00,
2013-05-28 03:06:00,74.7,70.9,29.84,SSE,165,18.4,18.4,88,0.00,CLR,,0.00,WeatherDisplay:10.37,2013-05-28 08:06:00,
2013-05-28 03:11:00,74.6,70.8,29.84,SE,134,10.4,10.4,88,0.00,CLR,,0.00,WeatherDisplay:10.37,2013-05-28 08:11:00,
2013-05-28 03:16:00,74.6,70.8,29.84,SE,145,13.8,13.8,88,0.00,CLR,,0.00,WeatherDisplay:10.37,2013-05-28 08:16:00,
2013-05-28 03:21:00,74.5,70.7,29.84,SE,144,15.0,15.0,88,0.00,CLR,,0.00,WeatherDisplay:10.37,2013-05-28 08:21:00,
2013-05-28 03:26:00,74.6,70.8,29.83,SSE,155,17.3,17.3,88,0.00,CLR,,0.00,WeatherDisplay:10.37,2013-05-28 08:26:00,
2013-05-28 03:31:00,74.7,70.9,29.83,SSE,148,18.4,18.4,88,0.00,CLR,,0.00,WeatherDisplay:10.37,2013-05-28 08:31:00,
2013-05-28 03:36:00,74.7,70.9,29.83,SE,134,11.5,11.5,88,0.00,CLR,,0.00,WeatherDisplay:10.37,2013-05-28 08:36:00,
2013-05-28 03:41:00,74.6,71.1,29.83,SSE,151,12.7,12.7,89,0.00,CLR,,0.00,WeatherDisplay:10.37,2013-05-28 08:41:00,
2013-05-28 03:46:00,74.7,71.2,29.83,SSE,165,11.5,11.5,89,0.00,CLR,,0.00,WeatherDisplay:10.37,2013-05-28 08:46:00,
2013-05-28 03:51:00,74.7,71.2,29.83,SE,124,11.5,11.5,89,0.00,CLR,,0.00,WeatherDisplay:10.37,2013-05-28 08:51:00,
2013-05-28 03:56:00,74.8,71.3,29.83,SSE,159,15.0,15.0,89,0.00,CLR,,0.00,WeatherDisplay:10.37,2013-05-28 08:56:00,
2013-05-28 04:01:00,74.8,71.3,29.83,SSE,156,15.0,15.0,89,0.00,CLR,,0.00,WeatherDisplay:10.37,2013-05-28 09:01:00,
2013-05-28 04:06:00,74.8,71.3,29.83,South,174,17.3,17.3,89,0.00,CLR,,0.00,WeatherDisplay:10.37,2013-05-28 09:06:00,
2013-05-28 04:11:00,74.8,71.3,29.83,ESE,117,13.8,13.8,89,0.00,CLR,,0.00,WeatherDisplay:10.37,2013-05-28 09:11:00,
2013-05-28 04:16:00,74.8,71.3,29.83,SE,140,20.7,20.7,89,0.00,CLR,,0.00,WeatherDisplay:10.37,2013-05-28 09:16:00,
2013-05-28 04:21:00,74.9,71.1,29.82,SSE,149,18.4,18.4,88,0.00,CLR,,0.00,WeatherDisplay:10.37,2013-05-28 09:21:00,
2013-05-28 04:26:00,74.8,71.3,29.83,SSE,149,12.7,12.7,89,0.00,CLR,,0.00,WeatherDisplay:10.37,2013-05-28 09:26:00,
2013-05-28 04:31:00,74.8,71.3,29.83,SSE,147,15.0,15.0,89,0.00,CLR,,0.00,WeatherDisplay:10.37,2013-05-28 09:31:00,
2013-05-28 04:36:00,74.8,71.3,29.83,SSE,160,13.0,13.0,89,0.00,CLR,,0.00,WeatherDisplay:10.37,2013-05-28 09:36:00,
2013-05-28 04:41:00,74.8,71.3,29.83,SSE,153,18.4,18.4,89,0.00,CLR,,0.00,WeatherDisplay:10.37,2013-05-28 09:41:00,
2013-05-28 04:46:00,74.9,71.1,29.83,SSE,150,11.5,11.5,88,0.00,CLR,,0.00,WeatherDisplay:10.37,2013-05-28 09:46:00,
2013-05-28 04:51:00,74.9,71.1,29.83,SE,138,21.9,21.9,88,0.00,CLR,,0.00,WeatherDisplay:10.37,2013-05-28 09:51:00,
2013-05-28 04:56:00,74.9,71.1,29.83,SE,140,15.0,15.0,88,0.00,CLR,,0.00,WeatherDisplay:10.37,2013-05-28 09:56:00,
2013-05-28 05:01:00,75.0,71.2,29.83,SSE,156,16.1,16.1,88,0.00,CLR,,0.00,WeatherDisplay:10.37,2013-05-28 10:01:00,
2013-05-28 05:06:00,75.0,71.2,29.83,ESE,111,11.5,11.5,88,0.00,CLR,,0.00,WeatherDisplay:10.37,2013-05-28 10:06:00,
2013-05-28 05:11:00,75.0,71.2,29.83,SSE,156,11.5,11.5,88,0.00,CLR,,0.00,WeatherDisplay:10.37,2013-05-28 10:11:00,
2013-05-28 05:16:00,75.0,71.2,29.83,SE,144,17.3,17.3,88,0.00,CLR,,0.00,WeatherDisplay:10.37,2013-05-28 10:16:00,
2013-05-28 05:21:00,75.0,71.2,29.83,SE,143,13.8,13.8,88,0.00,CLR,,0.00,WeatherDisplay:10.37,2013-05-28 10:21:00,
2013-05-28 05:26:00,75.0,71.2,29.83,SSE,151,17.3,17.3,88,0.00,CLR,,0.00,WeatherDisplay:10.37,2013-05-28 10:26:00,
2013-05-28 05:31:00,74.9,71.1,29.83,South,172,17.3,17.3,88,0.00,CLR,,0.00,WeatherDisplay:10.37,2013-05-28 10:31:00,
2013-05-28 05:36:00,74.9,71.1,29.83,SSE,160,12.0,12.0,88,0.00,CLR,,0.00,WeatherDisplay:10.37,2013-05-28 10:36:00,
2013-05-28 05:41:00,74.8,71.0,29.83,SE,134,12.7,12.7,88,0.00,CLR,,0.00,WeatherDisplay:10.37,2013-05-28 10:41:00,
2013-05-28 05:46:00,74.7,71.2,29.83,SE,145,12.7,12.7,89,0.00,CLR,,0.00,WeatherDisplay:10.37,2013-05-28 10:46:00,
2013-05-28 05:51:00,74.6,71.1,29.83,SE,146,12.7,12.7,89,0.00,CLR,,0.00,WeatherDisplay:10.37,2013-05-28 10:51:00,
2013-05-28 05:56:00,74.6,71.1,29.83,SE,134,15.0,15.0,89,0.00,CLR,,0.00,WeatherDisplay:10.37,2013-05-28 10:56:00,
2013-05-28 06:01:00,74.7,71.2,29.83,SSE,150,12.7,12.7,89,0.00,CLR,,0.00,WeatherDisplay:10.37,2013-05-28 11:01:00,
2013-05-28 06:06:00,74.7,71.2,29.83,SSE,166,10.0,10.0,89,0.00,CLR,,0.00,WeatherDisplay:10.37,2013-05-28 11:06:00,
2013-05-28 06:11:00,74.7,71.2,29.83,SSE,159,11.5,11.5,89,0.00,CLR,,0.00,WeatherDisplay:10.37,2013-05-28 11:11:00,
2013-05-28 06:16:00,74.8,71.3,29.83,SE,138,16.1,16.1,89,0.00,CLR,,0.00,WeatherDisplay:10.37,2013-05-28 11:16:00,
2013-05-28 06:21:00,74.8,71.3,29.84,SE,146,10.4,10.4,89,0.00,CLR,,0.00,WeatherDisplay:10.37,2013-05-28 11:21:00,
2013-05-28 06:26:00,74.9,71.4,29.84,SSE,149,16.1,16.1,89,0.00,CLR,,0.00,WeatherDisplay:10.37,2013-05-28 11:26:00,
2013-05-28 06:31:00,75.0,71.5,29.84,SSE,153,11.5,11.5,89,0.00,CLR,,0.00,WeatherDisplay:10.37,2013-05-28 11:31:00,
2013-05-28 06:36:00,74.9,71.4,29.84,South,169,10.4,10.4,89,0.00,CLR,,0.00,WeatherDisplay:10.37,2013-05-28 11:36:00,
2013-05-28 06:41:00,74.9,71.4,29.84,SE,138,11.5,11.5,89,0.00,CLR,,0.00,WeatherDisplay:10.37,2013-05-28 11:41:00,
2013-05-28 06:46:00,74.9,71.4,29.84,SSE,167,6.9,6.9,89,0.00,CLR,,0.00,WeatherDisplay:10.37,2013-05-28 11:46:00,
2013-05-28 06:51:00,75.0,71.5,29.84,SSE,156,11.5,11.5,89,0.00,CLR,,0.00,WeatherDisplay:10.37,2013-05-28 11:51:00,
2013-05-28 06:56:00,74.9,71.4,29.84,SSE,160,14.0,14.0,89,0.00,CLR,,0.00,WeatherDisplay:10.37,2013-05-28 11:56:00,
2013-05-28 07:01:00,75.0,71.5,29.83,SSE,159,16.1,16.1,89,0.00,CLR,,0.00,WeatherDisplay:10.37,2013-05-28 12:01:00,
2013-05-28 07:06:00,75.1,71.6,29.83,SE,138,10.4,10.4,89,0.00,CLR,,0.00,WeatherDisplay:10.37,2013-05-28 12:06:00,
2013-05-28 07:11:00,75.1,71.6,29.84,South,177,11.5,11.5,89,0.00,CLR,,0.00,WeatherDisplay:10.37,2013-05-28 12:11:00,
2013-05-28 07:16:00,75.2,71.7,29.84,SSE,162,12.7,12.7,89,0.00,CLR,,0.00,WeatherDisplay:10.37,2013-05-28 12:16:00,
2013-05-28 07:21:00,75.3,71.8,29.83,ESE,108,11.5,11.5,89,0.00,CLR,,0.00,WeatherDisplay:10.37,2013-05-28 12:21:00,
2013-05-28 07:26:00,75.3,71.5,29.84,SSE,150,9.2,9.2,88,0.00,CLR,,0.00,WeatherDisplay:10.37,2013-05-28 12:26:00,
2013-05-28 07:31:00,75.4,71.6,29.83,SE,139,11.5,11.5,88,0.00,CLR,,0.00,WeatherDisplay:10.37,2013-05-28 12:31:00,
2013-05-28 07:36:00,75.5,71.7,29.83,SSE,148,11.5,11.5,88,0.00,CLR,,0.00,WeatherDisplay:10.37,2013-05-28 12:36:00,
2013-05-28 07:41:00,75.7,71.9,29.84,SE,145,11.5,11.5,88,0.00,CLR,,0.00,WeatherDisplay:10.37,2013-05-28 12:41:00,
2013-05-28 07:46:00,75.9,72.1,29.84,SE,142,17.3,17.3,88,0.00,CLR,,0.00,WeatherDisplay:10.37,2013-05-28 12:46:00,
2013-05-28 07:51:00,75.9,72.1,29.84,SSE,150,11.5,11.5,88,0.00,CLR,,0.00,WeatherDisplay:10.37,2013-05-28 12:51:00,
2013-05-28 07:56:00,75.8,72.0,29.84,South,180,9.2,9.2,88,0.00,CLR,,0.00,WeatherDisplay:10.37,2013-05-28 12:56:00,
2013-05-28 08:01:00,75.7,72.2,29.83,SE,134,11.5,11.5,89,0.00,CLR,,0.00,WeatherDisplay:10.37,2013-05-28 13:01:00,
2013-05-28 08:06:00,75.8,72.3,29.84,SSE,165,13.8,13.8,89,0.00,CLR,,0.00,WeatherDisplay:10.37,2013-05-28 13:06:00,
2013-05-28 08:11:00,75.8,72.0,29.83,SE,146,16.1,16.1,88,0.00,CLR,,0.00,WeatherDisplay:10.37,2013-05-28 13:11:00,
2013-05-28 08:16:00,76.0,72.2,29.83,East,94,17.3,17.3,88,0.00,CLR,,0.00,WeatherDisplay:10.37,2013-05-28 13:16:00,
2013-05-28 08:21:00,76.0,72.2,29.83,ENE,75,18.4,18.4,88,0.00,CLR,,0.00,WeatherDisplay:10.37,2013-05-28 13:21:00,
2013-05-28 08:26:00,76.0,71.8,29.83,SSE,154,18.4,18.4,87,0.00,CLR,,0.00,WeatherDisplay:10.37,2013-05-28 13:26:00,
2013-05-28 08:31:00,76.2,72.0,29.84,SE,131,15.0,15.0,87,0.00,CLR,,0.00,WeatherDisplay:10.37,2013-05-28 13:31:00,
2013-05-28 08:36:00,76.3,72.1,29.84,SSE,148,19.6,19.6,87,0.00,CLR,,0.00,WeatherDisplay:10.37,2013-05-28 13:36:00,
2013-05-28 08:41:00,76.5,72.3,29.84,SSE,160,15.0,15.0,87,0.00,CLR,,0.00,WeatherDisplay:10.37,2013-05-28 13:41:00,
2013-05-28 08:46:00,76.6,72.1,29.84,SE,145,11.5,11.5,86,0.00,CLR,,0.00,WeatherDisplay:10.37,2013-05-28 13:46:00,
2013-05-28 08:51:00,76.9,72.4,29.84,SE,124,11.5,11.5,86,0.00,CLR,,0.00,WeatherDisplay:10.37,2013-05-28 13:51:00,
2013-05-28 08:56:00,77.2,72.3,29.84,SE,139,13.8,13.8,85,0.00,CLR,,0.00,WeatherDisplay:10.37,2013-05-28 13:56:00,
2013-05-28 09:01:00,77.7,72.5,29.84,SE,146,18.4,18.4,84,0.00,CLR,,0.00,WeatherDisplay:10.37,2013-05-28 14:01:00,
2013-05-28 09:06:00,78.0,72.4,29.84,SE,141,18.4,18.4,83,0.00,CLR,,0.00,WeatherDisplay:10.37,2013-05-28 14:06:00,
2013-05-28 09:11:00,78.2,72.6,29.84,SE,131,19.6,19.6,83,0.00,CLR,,0.00,WeatherDisplay:10.37,2013-05-28 14:11:00,
2013-05-28 09:16:00,78.1,72.2,29.84,SSE,166,18.4,18.4,82,0.00,CLR,,0.00,WeatherDisplay:10.37,2013-05-28 14:16:00,
2013-05-28 09:21:00,78.4,72.8,29.84,SE,135,19.6,19.6,83,0.00,CLR,,0.00,WeatherDisplay:10.37,2013-05-28 14:21:00,
2013-05-28 09:26:00,78.7,72.7,29.84,South,169,17.3,17.3,82,0.00,CLR,,0.00,WeatherDisplay:10.37,2013-05-28 14:26:00,
2013-05-28 09:31:00,78.7,72.7,29.84,SE,127,13.8,13.8,82,0.00,CLR,,0.00,WeatherDisplay:10.37,2013-05-28 14:31:00,
2013-05-28 09:36:00,78.7,72.7,29.84,SSE,153,16.1,16.1,82,0.00,CLR,,0.00,WeatherDisplay:10.37,2013-05-28 14:36:00,
2013-05-28 09:41:00,79.1,73.5,29.84,SSE,162,18.4,18.4,83,0.00,CLR,,0.00,WeatherDisplay:10.37,2013-05-28 14:41:00,
2013-05-28 09:46:00,80.1,73.0,29.84,SE,141,21.0,21.0,79,0.00,CLR,,0.00,WeatherDisplay:10.37,2013-05-28 14:46:00,
2013-05-28 09:51:00,80.6,73.1,29.84,SE,143,18.4,18.4,78,0.00,CLR,,0.00,WeatherDisplay:10.37,2013-05-28 14:51:00,
2013-05-28 09:56:00,80.2,71.9,29.84,SSE,156,19.6,19.6,76,0.00,CLR,,0.00,WeatherDisplay:10.37,2013-05-28 14:56:00,
2013-05-28 10:01:00,80.0,72.1,29.84,SE,126,19.6,19.6,77,0.00,CLR,,0.00,WeatherDisplay:10.37,2013-05-28 15:01:00,
2013-05-28 10:06:00,79.9,72.4,29.84,SSE,156,18.4,18.4,78,0.00,CLR,,0.00,WeatherDisplay:10.37,2013-05-28 15:06:00,
2013-05-28 10:11:00,79.9,72.8,29.84,SE,139,12.7,12.7,79,0.00,CLR,,0.00,WeatherDisplay:10.37,2013-05-28 15:11:00,
2013-05-28 10:16:00,80.2,72.3,29.84,ESE,123,20.7,20.7,77,0.00,CLR,,0.00,WeatherDisplay:10.37,2013-05-28 15:16:00,
2013-05-28 10:21:00,80.6,72.3,29.84,SSE,167,20.7,20.7,76,0.00,CLR,,0.00,WeatherDisplay:10.37,2013-05-28 15:21:00,
2013-05-28 10:26:00,81.1,72.8,29.84,SSE,153,16.1,16.1,76,0.00,CLR,,0.00,WeatherDisplay:10.37,2013-05-28 15:26:00,
2013-05-28 10:31:00,81.6,72.1,29.84,South,170,21.9,21.9,73,0.00,CLR,,0.00,WeatherDisplay:10.37,2013-05-28 15:31:00,
2013-05-28 10:36:00,81.9,72.4,29.84,SSE,153,19.6,19.6,73,0.00,CLR,,0.00,WeatherDisplay:10.37,2013-05-28 15:36:00,
2013-05-28 10:41:00,82.1,71.8,29.84,SSE,160,23.0,23.0,71,0.00,CLR,,0.00,WeatherDisplay:10.37,2013-05-28 15:41:00,
2013-05-28 10:46:00,82.5,71.7,29.84,South,188,19.6,19.6,70,0.00,CLR,,0.00,WeatherDisplay:10.37,2013-05-28 15:46:00,
2013-05-28 10:51:00,83.2,73.2,29.83,SSE,148,13.8,13.8,72,0.00,CLR,,0.00,WeatherDisplay:10.37,2013-05-28 15:51:00,
2013-05-28 10:56:00,83.4,73.4,29.83,SSE,156,16.1,16.1,72,0.00,CLR,,0.00,WeatherDisplay:10.37,2013-05-28 15:56:00,
2013-05-28 11:01:00,83.2,72.4,29.84,SSE,154,18.4,18.4,70,0.00,CLR,,0.00,WeatherDisplay:10.37,2013-05-28 16:01:00,
2013-05-28 11:06:00,83.0,72.2,29.84,SE,138,21.9,21.9,70,0.00,CLR,,0.00,WeatherDisplay:10.37,2013-05-28 16:06:00,
2013-05-28 11:11:00,82.7,72.3,29.84,SSE,167,16.0,16.0,71,0.00,CLR,,0.00,WeatherDisplay:10.37,2013-05-28 16:11:00,
2013-05-28 11:16:00,82.4,72.5,29.84,SE,146,19.6,19.6,72,0.00,CLR,,0.00,WeatherDisplay:10.37,2013-05-28 16:16:00,
2013-05-28 11:21:00,82.7,72.7,29.84,SSE,152,19.6,19.6,72,0.00,CLR,,0.00,WeatherDisplay:10.37,2013-05-28 16:21:00,
2013-05-28 11:26:00,82.5,72.6,29.84,SE,140,17.3,17.3,72,0.00,CLR,,0.00,WeatherDisplay:10.37,2013-05-28 16:26:00,
2013-05-28 11:31:00,83.2,72.8,29.84,SSE,149,20.7,20.7,71,0.00,CLR,,0.00,WeatherDisplay:10.37,2013-05-28 16:31:00,
2013-05-28 11:36:00,83.2,73.2,29.84,SSE,148,17.3,17.3,72,0.00,CLR,,0.00,WeatherDisplay:10.37,2013-05-28 16:36:00,
2013-05-28 11:41:00,83.3,72.1,29.84,SSE,160,21.9,21.9,69,0.00,CLR,,0.00,WeatherDisplay:10.37,2013-05-28 16:41:00,
2013-05-28 11:46:00,83.7,73.3,29.83,SE,144,18.4,18.4,71,0.00,CLR,,0.00,WeatherDisplay:10.37,2013-05-28 16:46:00,
2013-05-28 11:51:00,84.1,73.3,29.83,ESE,103,17.3,17.3,70,0.00,CLR,,0.00,WeatherDisplay:10.37,2013-05-28 16:51:00,
2013-05-28 11:56:00,84.1,72.8,29.83,SSE,154,23.0,23.0,69,0.00,CLR,,0.00,WeatherDisplay:10.37,2013-05-28 16:56:00,
2013-05-28 12:01:00,84.3,73.0,29.83,ENE,77,21.9,21.9,69,0.00,CLR,,0.00,WeatherDisplay:10.37,2013-05-28 17:01:00,
2013-05-28 12:06:00,84.7,73.4,29.83,SE,143,17.3,17.3,69,0.00,CLR,,0.00,WeatherDisplay:10.37,2013-05-28 17:06:00,
2013-05-28 12:11:00,84.3,73.0,29.83,SE,132,16.1,16.1,69,0.00,CLR,,0.00,WeatherDisplay:10.37,2013-05-28 17:11:00,
2013-05-28 12:16:00,84.3,73.4,29.83,SE,146,17.3,17.3,70,0.00,CLR,,0.00,WeatherDisplay:10.37,2013-05-28 17:16:00,
2013-05-28 12:21:00,84.4,73.5,29.83,SSE,148,19.6,19.6,70,0.00,CLR,,0.00,WeatherDisplay:10.37,2013-05-28 17:21:00,
2013-05-28 12:26:00,84.2,73.3,29.82,SSE,156,16.1,16.1,70,0.00,CLR,,0.00,WeatherDisplay:10.37,2013-05-28 17:26:00,
2013-05-28 12:31:00,84.3,73.9,29.82,SSE,159,20.7,20.7,71,0.00,CLR,,0.00,WeatherDisplay:10.37,2013-05-28 17:31:00,
2013-05-28 12:37:00,84.3,73.4,29.82,SE,145,19.6,19.6,70,0.00,CLR,,0.00,WeatherDisplay:10.37,2013-05-28 17:37:00,
2013-05-28 12:42:00,85.0,74.5,29.82,SSE,163,13.8,13.8,71,0.00,CLR,,0.00,WeatherDisplay:10.37,2013-05-28 17:42:00,
2013-05-28 12:47:00,85.4,72.7,29.82,SSE,156,19.6,19.6,66,0.00,CLR,,0.00,WeatherDisplay:10.37,2013-05-28 17:47:00,
2013-05-28 12:52:00,85.3,73.1,29.82,SE,141,18.4,18.4,67,0.00,CLR,,0.00,WeatherDisplay:10.37,2013-05-28 17:52:00,
2013-05-28 12:57:00,85.0,72.8,29.82,SSE,156,15.0,15.0,67,0.00,CLR,,0.00,WeatherDisplay:10.37,2013-05-28 17:57:00,
2013-05-28 13:02:00,84.9,72.7,29.82,SE,138,17.3,17.3,67,0.00,CLR,,0.00,WeatherDisplay:10.37,2013-05-28 18:02:00,
2013-05-28 13:07:00,85.3,74.0,29.82,SSE,159,17.0,17.0,69,0.00,CLR,,0.00,WeatherDisplay:10.37,2013-05-28 18:07:00,
2013-05-28 13:12:00,85.5,72.8,29.82,SE,126,18.4,18.4,66,0.00,CLR,,0.00,WeatherDisplay:10.37,2013-05-28 18:12:00,
2013-05-28 13:17:00,85.3,73.5,29.81,SE,141,19.6,19.6,68,0.00,CLR,,0.00,WeatherDisplay:10.37,2013-05-28 18:17:00,
2013-05-28 13:22:00,85.8,73.1,29.81,SSE,153,19.6,19.6,66,0.00,CLR,,0.00,WeatherDisplay:10.37,2013-05-28 18:22:00,
2013-05-28 13:27:00,85.4,73.6,29.81,South,172,18.4,18.4,68,0.00,CLR,,0.00,WeatherDisplay:10.37,2013-05-28 18:27:00,
2013-05-28 13:32:00,85.7,73.0,29.81,SE,134,18.4,18.4,66,0.00,CLR,,0.00,WeatherDisplay:10.37,2013-05-28 18:32:00,
2013-05-28 13:37:00,85.9,74.1,29.81,ESE,117,18.4,18.4,68,0.00,CLR,,0.00,WeatherDisplay:10.37,2013-05-28 18:37:00,
2013-05-28 13:42:00,85.8,73.6,29.80,SE,134,17.3,17.3,67,0.00,CLR,,0.00,WeatherDisplay:10.37,2013-05-28 18:42:00,
2013-05-28 13:47:00,85.4,73.2,29.80,SSE,162,13.8,13.8,67,0.00,CLR,,0.00,WeatherDisplay:10.37,2013-05-28 18:47:00,
2013-05-28 13:52:00,85.8,73.6,29.80,SSE,148,19.6,19.6,67,0.00,CLR,,0.00,WeatherDisplay:10.37,2013-05-28 18:52:00,
2013-05-28 13:57:00,86.5,72.4,29.79,SE,140,17.3,17.3,63,0.00,CLR,,0.00,WeatherDisplay:10.37,2013-05-28 18:57:00,
2013-05-28 14:02:00,86.8,72.7,29.78,SE,132,17.3,17.3,63,0.00,CLR,,0.00,WeatherDisplay:10.37,2013-05-28 19:02:00,
2013-05-28 14:07:00,87.2,73.5,29.78,SSE,149,21.9,21.9,64,0.00,CLR,,0.00,WeatherDisplay:10.37,2013-05-28 19:07:00,
2013-05-28 14:12:00,87.2,72.1,29.78,SSE,148,16.1,16.1,61,0.00,CLR,,0.00,WeatherDisplay:10.37,2013-05-28 19:12:00,
2013-05-28 14:17:00,87.2,73.5,29.78,SE,126,11.5,11.5,64,0.00,CLR,,0.00,WeatherDisplay:10.37,2013-05-28 19:17:00,
2013-05-28 14:22:00,87.1,72.0,29.78,SE,127,19.6,19.6,61,0.00,CLR,,0.00,WeatherDisplay:10.37,2013-05-28 19:22:00,
2013-05-28 14:27:00,86.4,71.8,29.78,SE,126,17.3,17.3,62,0.00,CLR,,0.00,WeatherDisplay:10.37,2013-05-28 19:27:00,
2013-05-28 14:32:00,86.8,72.2,29.78,SSE,162,20.0,20.0,62,0.00,CLR,,0.00,WeatherDisplay:10.37,2013-05-28 19:32:00,
2013-05-28 14:37:00,87.2,71.1,29.77,SE,128,18.4,18.4,59,0.00,CLR,,0.00,WeatherDisplay:10.37,2013-05-28 19:37:00,
2013-05-28 14:42:00,87.4,71.8,29.77,SSE,148,18.4,18.4,60,0.00,CLR,,0.00,WeatherDisplay:10.37,2013-05-28 19:42:00,
2013-05-28 14:47:00,87.2,72.1,29.78,SE,134,19.6,19.6,61,0.00,CLR,,0.00,WeatherDisplay:10.37,2013-05-28 19:47:00,
2013-05-28 14:52:00,87.1,72.5,29.78,SE,135,19.6,19.6,62,0.00,CLR,,0.00,WeatherDisplay:10.37,2013-05-28 19:52:00,
2013-05-28 14:57:00,87.2,72.1,29.78,SE,134,19.6,19.6,61,0.00,CLR,,0.00,WeatherDisplay:10.37,2013-05-28 19:57:00,
2013-05-28 15:02:00,87.1,72.0,29.77,SE,127,19.6,19.6,61,0.00,CLR,,0.00,WeatherDisplay:10.37,2013-05-28 20:02:00,
2013-05-28 15:07:00,87.0,72.4,29.77,ESE,120,13.8,13.8,62,0.00,CLR,,0.00,WeatherDisplay:10.37,2013-05-28 20:07:00,
2013-05-28 15:12:00,87.6,73.0,29.77,SE,134,18.4,18.4,62,0.00,CLR,,0.00,WeatherDisplay:10.37,2013-05-28 20:12:00,
2013-05-28 15:17:00,87.8,72.2,29.77,SE,134,19.6,19.6,60,0.00,CLR,,0.00,WeatherDisplay:10.37,2013-05-28 20:17:00,
2013-05-28 15:22:00,87.8,72.7,29.77,ESE,118,13.8,13.8,61,0.00,CLR,,0.00,WeatherDisplay:10.37,2013-05-28 20:22:00,
2013-05-28 15:27:00,87.4,72.3,29.77,SE,132,19.6,19.6,61,0.00,CLR,,0.00,WeatherDisplay:10.37,2013-05-28 20:27:00,
2013-05-28 15:32:00,87.9,73.7,29.77,SE,132,17.3,17.3,63,0.00,CLR,,0.00,WeatherDisplay:10.37,2013-05-28 20:32:00,
2013-05-28 15:37:00,87.6,72.0,29.77,SE,134,21.9,21.9,60,0.00,CLR,,0.00,WeatherDisplay:10.37,2013-05-28 20:37:00,
2013-05-28 15:42:00,87.2,73.5,29.77,SE,139,15.0,15.0,64,0.00,CLR,,0.00,WeatherDisplay:10.37,2013-05-28 20:42:00,
2013-05-28 15:47:00,87.6,72.0,29.77,ESE,122,19.6,19.6,60,0.00,CLR,,0.00,WeatherDisplay:10.37,2013-05-28 20:47:00,
2013-05-28 15:52:00,87.7,73.1,29.76,SE,143,21.0,21.0,62,0.00,CLR,,0.00,WeatherDisplay:10.37,2013-05-28 20:52:00,
2013-05-28 15:57:00,88.0,72.9,29.76,SE,135,16.1,16.1,61,0.00,CLR,,0.00,WeatherDisplay:10.37,2013-05-28 20:57:00,
2013-05-28 16:02:00,87.7,71.6,29.76,SE,124,18.4,18.4,59,0.00,CLR,,0.00,WeatherDisplay:10.37,2013-05-28 21:02:00,
2013-05-28 16:07:00,87.7,72.1,29.76,ESE,122,18.4,18.4,60,0.00,CLR,,0.00,WeatherDisplay:10.37,2013-05-28 21:07:00,
2013-05-28 16:12:00,88.0,72.4,29.76,ESE,112,13.8,13.8,60,0.00,CLR,,0.00,WeatherDisplay:10.37,2013-05-28 21:12:00,
2013-05-28 16:17:00,87.7,71.6,29.76,ESE,122,18.4,18.4,59,0.00,CLR,,0.00,WeatherDisplay:10.37,2013-05-28 21:17:00,
2013-05-28 16:22:00,87.7,72.6,29.76,SE,125,19.6,19.6,61,0.00,CLR,,0.00,WeatherDisplay:10.37,2013-05-28 21:22:00,
2013-05-28 16:27:00,87.8,71.7,29.75,ESE,106,21.9,21.9,59,0.00,CLR,,0.00,WeatherDisplay:10.37,2013-05-28 21:27:00,
2013-05-28 16:32:00,87.9,72.8,29.75,SE,139,17.3,17.3,61,0.00,CLR,,0.00,WeatherDisplay:10.37,2013-05-28 21:32:00,
2013-05-28 16:37:00,87.8,72.2,29.75,ESE,117,20.7,20.7,60,0.00,CLR,,0.00,WeatherDisplay:10.37,2013-05-28 21:37:00,
2013-05-28 16:42:00,87.6,71.5,29.75,SE,129,15.0,15.0,59,0.00,CLR,,0.00,WeatherDisplay:10.37,2013-05-28 21:42:00,
2013-05-28 16:47:00,87.4,72.3,29.75,SE,146,19.6,19.6,61,0.00,CLR,,0.00,WeatherDisplay:10.37,2013-05-28 21:47:00,
2013-05-28 16:52:00,87.2,73.1,29.75,ESE,122,16.1,16.1,63,0.00,CLR,,0.00,WeatherDisplay:10.37,2013-05-28 21:52:00,
2013-05-28 16:57:00,87.1,72.5,29.75,ESE,117,18.4,18.4,62,0.00,CLR,,0.00,WeatherDisplay:10.37,2013-05-28 21:57:00,
2013-05-28 17:02:00,86.6,73.0,29.75,East,101,17.3,17.3,64,0.00,CLR,,0.00,WeatherDisplay:10.37,2013-05-28 22:02:00,
2013-05-28 17:07:00,86.6,73.4,29.75,SE,135,17.3,17.3,65,0.00,CLR,,0.00,WeatherDisplay:10.37,2013-05-28 22:07:00,
2013-05-28 17:12:00,86.8,72.7,29.74,ESE,116,19.6,19.6,63,0.00,CLR,,0.00,WeatherDisplay:10.37,2013-05-28 22:12:00,
2013-05-28 17:17:00,86.5,72.9,29.75,ESE,115,19.6,19.6,64,0.00,CLR,,0.00,WeatherDisplay:10.37,2013-05-28 22:17:00,
2013-05-28 17:22:00,86.5,72.4,29.75,SE,124,21.9,21.9,63,0.00,CLR,,0.00,WeatherDisplay:10.37,2013-05-28 22:22:00,
2013-05-28 17:27:00,86.4,72.8,29.74,SE,131,18.4,18.4,64,0.00,CLR,,0.00,WeatherDisplay:10.37,2013-05-28 22:27:00,
2013-05-28 17:32:00,86.3,73.1,29.75,ESE,120,20.7,20.7,65,0.00,CLR,,0.00,WeatherDisplay:10.37,2013-05-28 22:32:00,
2013-05-28 17:37:00,85.8,72.7,29.74,ESE,108,19.6,19.6,65,0.00,CLR,,0.00,WeatherDisplay:10.37,2013-05-28 22:37:00,
2013-05-28 17:42:00,86.0,72.9,29.74,SE,132,19.6,19.6,65,0.00,CLR,,0.00,WeatherDisplay:10.37,2013-05-28 22:42:00,
2013-05-28 17:47:00,86.1,73.4,29.75,ESE,112,23.0,23.0,66,0.00,CLR,,0.00,WeatherDisplay:10.37,2013-05-28 22:47:00,
2013-05-28 17:52:00,85.6,72.9,29.74,SE,144,21.9,21.9,66,0.00,CLR,,0.00,WeatherDisplay:10.37,2013-05-28 22:52:00,
2013-05-28 17:57:00,85.1,72.9,29.75,SE,131,21.9,21.9,67,0.00,CLR,,0.00,WeatherDisplay:10.37,2013-05-28 22:57:00,
2013-05-28 18:02:00,85.3,73.1,29.74,SE,142,18.4,18.4,67,0.00,CLR,,0.00,WeatherDisplay:10.37,2013-05-28 23:02:00,
2013-05-28 18:07:00,85.5,73.3,29.74,SE,127,19.6,19.6,67,0.00,CLR,,0.00,WeatherDisplay:10.37,2013-05-28 23:07:00,
2013-05-28 18:12:00,85.6,72.9,29.74,SE,127,21.9,21.9,66,0.00,CLR,,0.00,WeatherDisplay:10.37,2013-05-28 23:12:00,
2013-05-28 18:17:00,85.1,72.9,29.74,SE,143,23.0,23.0,67,0.00,CLR,,0.00,WeatherDisplay:10.37,2013-05-28 23:17:00,
2013-05-28 18:22:00,84.9,72.7,29.74,ESE,103,19.6,19.6,67,0.00,CLR,,0.00,WeatherDisplay:10.37,2013-05-28 23:22:00,
2013-05-28 18:27:00,84.7,72.5,29.74,SE,124,25.3,25.3,67,0.00,CLR,,0.00,WeatherDisplay:10.37,2013-05-28 23:27:00,
2013-05-28 18:32:00,84.6,72.9,29.74,SSE,150,23.0,23.0,68,0.00,CLR,,0.00,WeatherDisplay:10.37,2013-05-28 23:32:00,
2013-05-28 18:37:00,84.6,72.9,29.74,ESE,112,19.6,19.6,68,0.00,CLR,,0.00,WeatherDisplay:10.37,2013-05-28 23:37:00,
2013-05-28 18:42:00,84.4,72.7,29.74,ESE,116,23.0,23.0,68,0.00,CLR,,0.00,WeatherDisplay:10.37,2013-05-28 23:42:00,
2013-05-28 18:47:00,84.0,72.7,29.74,SE,124,23.0,23.0,69,0.00,CLR,,0.00,WeatherDisplay:10.37,2013-05-28 23:47:00,
2013-05-28 18:52:00,83.6,72.3,29.74,ESE,116,18.4,18.4,69,0.00,CLR,,0.00,WeatherDisplay:10.37,2013-05-28 23:52:00,
2013-05-28 18:57:00,83.2,72.4,29.74,SSE,167,21.9,21.9,70,0.00,CLR,,0.00,WeatherDisplay:10.37,2013-05-28 23:57:00,
2013-05-28 19:02:00,83.0,72.6,29.74,SSE,150,18.4,18.4,71,0.00,CLR,,0.00,WeatherDisplay:10.37,2013-05-29 00:02:00,
2013-05-28 19:07:00,82.7,72.3,29.74,SE,146,23.0,23.0,71,0.00,CLR,,0.00,WeatherDisplay:10.37,2013-05-29 00:07:00,
2013-05-28 19:12:00,82.5,72.1,29.74,ESE,120,24.2,24.2,71,0.00,CLR,,0.00,WeatherDisplay:10.37,2013-05-29 00:12:00,
2013-05-28 19:17:00,82.4,72.0,29.73,ESE,116,26.5,26.5,71,0.00,CLR,,0.00,WeatherDisplay:10.37,2013-05-29 00:17:00,
2013-05-28 19:22:00,82.2,72.3,29.73,SSE,160,25.3,25.3,72,0.00,CLR,,0.00,WeatherDisplay:10.37,2013-05-29 00:22:00,
2013-05-28 19:27:00,81.9,72.4,29.74,SE,131,23.0,23.0,73,0.00,CLR,,0.00,WeatherDisplay:10.37,2013-05-29 00:27:00,
2013-05-28 19:32:00,81.7,71.8,29.74,SE,128,21.0,21.0,72,0.00,CLR,,0.00,WeatherDisplay:10.37,2013-05-29 00:32:00,
2013-05-28 19:37:00,81.5,72.0,29.74,ESE,116,15.0,15.0,73,0.00,CLR,,0.00,WeatherDisplay:10.37,2013-05-29 00:37:00,
2013-05-28 19:42:00,81.2,72.1,29.74,SE,129,21.9,21.9,74,0.00,CLR,,0.00,WeatherDisplay:10.37,2013-05-29 00:42:00,
2013-05-28 19:47:00,81.1,72.0,29.74,SE,127,19.6,19.6,74,0.00,CLR,,0.00,WeatherDisplay:10.37,2013-05-29 00:47:00,
2013-05-28 19:52:00,81.0,71.9,29.74,SE,141,23.0,23.0,74,0.00,CLR,,0.00,WeatherDisplay:10.37,2013-05-29 00:52:00,
2013-05-28 19:57:00,80.8,71.7,29.75,SE,139,19.6,19.6,74,0.00,CLR,,0.00,WeatherDisplay:10.37,2013-05-29 00:57:00,
2013-05-28 20:02:00,80.6,71.9,29.75,SE,135,15.0,15.0,75,0.00,CLR,,0.00,WeatherDisplay:10.37,2013-05-29 01:02:00,
2013-05-28 20:07:00,80.5,71.4,29.75,ESE,105,26.5,26.5,74,0.00,CLR,,0.00,WeatherDisplay:10.37,2013-05-29 01:07:00,
2013-05-28 20:12:00,80.4,71.7,29.75,SE,129,23.0,23.0,75,0.00,CLR,,0.00,WeatherDisplay:10.37,2013-05-29 01:12:00,
2013-05-28 20:17:00,80.2,71.6,29.76,ESE,121,15.0,15.0,75,0.00,CLR,,0.00,WeatherDisplay:10.37,2013-05-29 01:17:00,
2013-05-28 20:22:00,80.0,71.8,29.76,SE,134,18.4,18.4,76,0.00,CLR,,0.00,WeatherDisplay:10.37,2013-05-29 01:22:00,
2013-05-28 20:27:00,79.9,72.0,29.76,SE,126,18.4,18.4,77,0.00,CLR,,0.00,WeatherDisplay:10.37,2013-05-29 01:27:00,
2013-05-28 20:32:00,79.7,71.8,29.76,ESE,108,21.9,21.9,77,0.00,CLR,,0.00,WeatherDisplay:10.37,2013-05-29 01:32:00,
2013-05-28 20:37:00,79.6,71.8,29.76,SE,127,13.8,13.8,77,0.00,CLR,,0.00,WeatherDisplay:10.37,2013-05-29 01:37:00,
2013-05-28 20:42:00,79.4,71.6,29.77,SE,139,18.4,18.4,77,0.00,CLR,,0.00,WeatherDisplay:10.37,2013-05-29 01:42:00,
2013-05-28 20:47:00,79.4,71.6,29.77,SE,136,19.6,19.6,77,0.00,CLR,,0.00,WeatherDisplay:10.37,2013-05-29 01:47:00,
2013-05-28 20:52:00,79.3,71.5,29.77,SE,146,19.6,19.6,77,0.00,CLR,,0.00,WeatherDisplay:10.37,2013-05-29 01:52:00,
2013-05-28 20:57:00,79.3,71.8,29.78,SE,135,16.1,16.1,78,0.00,CLR,,0.00,WeatherDisplay:10.37,2013-05-29 01:57:00,
2013-05-28 21:02:00,79.2,71.7,29.78,SSE,159,17.3,17.3,78,0.00,CLR,,0.00,WeatherDisplay:10.37,2013-05-29 02:02:00,
2013-05-28 21:07:00,79.0,71.9,29.78,SE,143,19.6,19.6,79,0.00,CLR,,0.00,WeatherDisplay:10.37,2013-05-29 02:07:00,
2013-05-28 21:12:00,78.9,71.8,29.79,SSE,150,12.7,12.7,79,0.00,CLR,,0.00,WeatherDisplay:10.37,2013-05-29 02:12:00,
2013-05-28 21:17:00,78.8,71.7,29.79,SE,139,19.6,19.6,79,0.00,CLR,,0.00,WeatherDisplay:10.37,2013-05-29 02:17:00,
2013-05-28 21:22:00,78.6,71.5,29.79,ESE,105,19.6,19.6,79,0.00,CLR,,0.00,WeatherDisplay:10.37,2013-05-29 02:22:00,
2013-05-28 21:27:00,78.3,71.6,29.78,ESE,121,13.8,13.8,80,0.00,CLR,,0.00,WeatherDisplay:10.37,2013-05-29 02:27:00,
2013-05-28 21:32:00,78.2,71.5,29.78,SE,128,19.6,19.6,80,0.00,CLR,,0.00,WeatherDisplay:10.37,2013-05-29 02:32:00,
2013-05-28 21:37:00,78.1,71.8,29.79,SE,128,17.3,17.3,81,0.00,CLR,,0.00,WeatherDisplay:10.37,2013-05-29 02:37:00,
2013-05-28 21:42:00,78.1,71.4,29.79,SE,128,19.6,19.6,80,0.00,CLR,,0.00,WeatherDisplay:10.37,2013-05-29 02:42:00,
2013-05-28 21:47:00,78.1,71.4,29.79,SE,142,19.6,19.6,80,0.00,CLR,,0.00,WeatherDisplay:10.37,2013-05-29 02:47:00,
2013-05-28 21:52:00,78.0,71.7,29.79,SE,144,15.0,15.0,81,0.00,CLR,,0.00,WeatherDisplay:10.37,2013-05-29 02:52:00,
2013-05-28 21:57:00,78.0,71.3,29.79,SE,131,19.6,19.6,80,0.00,CLR,,0.00,WeatherDisplay:10.37,2013-05-29 02:57:00,
2013-05-28 22:02:00,78.0,71.7,29.79,SSE,159,16.1,16.1,81,0.00,CLR,,0.00,WeatherDisplay:10.37,2013-05-29 03:02:00,
2013-05-28 22:07:00,77.9,71.6,29.79,SE,124,11.5,11.5,81,0.00,CLR,,0.00,WeatherDisplay:10.37,2013-05-29 03:07:00,
2013-05-28 22:12:00,77.8,71.5,29.79,SE,125,19.6,19.6,81,0.00,CLR,,0.00,WeatherDisplay:10.37,2013-05-29 03:12:00,
2013-05-28 22:17:00,77.8,71.5,29.79,SE,146,10.4,10.4,81,0.00,CLR,,0.00,WeatherDisplay:10.37,2013-05-29 03:17:00,
2013-05-28 22:22:00,77.7,71.8,29.79,SE,134,14.0,14.0,82,0.00,CLR,,0.00,WeatherDisplay:10.37,2013-05-29 03:22:00,
2013-05-28 22:27:00,77.7,71.8,29.79,SE,137,20.7,20.7,82,0.00,CLR,,0.00,WeatherDisplay:10.37,2013-05-29 03:27:00,
2013-05-28 22:32:00,77.7,71.8,29.80,SE,127,16.1,16.1,82,0.00,CLR,,0.00,WeatherDisplay:10.37,2013-05-29 03:32:00,
2013-05-28 22:37:00,77.7,71.8,29.80,ESE,121,15.0,15.0,82,0.00,CLR,,0.00,WeatherDisplay:10.37,2013-05-29 03:37:00,
2013-05-28 22:42:00,77.6,71.7,29.80,ESE,115,11.5,11.5,82,0.00,CLR,,0.00,WeatherDisplay:10.37,2013-05-29 03:42:00,
2013-05-28 22:47:00,77.5,71.6,29.80,ESE,122,16.1,16.1,82,0.00,CLR,,0.00,WeatherDisplay:10.37,2013-05-29 03:47:00,
2013-05-28 22:52:00,77.5,71.6,29.80,SE,133,15.0,15.0,82,0.00,CLR,,0.00,WeatherDisplay:10.37,2013-05-29 03:52:00,
2013-05-28 22:57:00,77.5,71.6,29.80,ESE,114,18.4,18.4,82,0.00,CLR,,0.00,WeatherDisplay:10.37,2013-05-29 03:57:00,
2013-05-28 23:01:00,77.4,71.5,29.81,ESE,118,15.0,15.0,82,0.00,CLR,,0.00,WeatherDisplay:10.37,2013-05-29 04:01:00,
2013-05-28 23:06:00,77.3,71.4,29.81,SE,126,12.7,12.7,82,0.00,CLR,,0.00,WeatherDisplay:10.37,2013-05-29 04:06:00,
2013-05-28 23:11:00,77.3,71.4,29.81,ESE,120,11.5,11.5,82,0.00,CLR,,0.00,WeatherDisplay:10.37,2013-05-29 04:11:00,
2013-05-28 23:16:00,77.2,71.6,29.82,SE,128,11.5,11.5,83,0.00,CLR,,0.00,WeatherDisplay:10.37,2013-05-29 04:16:00,
2013-05-28 23:21:00,77.2,71.6,29.82,SE,141,12.7,12.7,83,0.00,CLR,,0.00,WeatherDisplay:10.37,2013-05-29 04:21:00,
2013-05-28 23:26:00,77.2,71.6,29.82,SE,128,11.5,11.5,83,0.00,CLR,,0.00,WeatherDisplay:10.37,2013-05-29 04:26:00,
2013-05-28 23:31:00,77.2,71.6,29.82,ESE,112,15.0,15.0,83,0.00,CLR,,0.00,WeatherDisplay:10.37,2013-05-29 04:31:00,
2013-05-28 23:36:00,77.2,71.6,29.83,ESE,116,11.5,11.5,83,0.00,CLR,,0.00,WeatherDisplay:10.37,2013-05-29 04:36:00,
2013-05-28 23:41:00,77.1,71.5,29.83,ESE,118,12.7,12.7,83,0.00,CLR,,0.00,WeatherDisplay:10.37,2013-05-29 04:41:00,
2013-05-28 23:46:00,77.1,71.5,29.83,SE,136,17.3,17.3,83,0.00,CLR,,0.00,WeatherDisplay:10.37,2013-05-29 04:46:00,
2013-05-28 23:51:00,77.1,71.5,29.83,SE,129,8.1,8.1,83,0.00,CLR,,0.00,WeatherDisplay:10.37,2013-05-29 04:51:00,
2013-05-28 23:56:00,77.0,71.4,29.83,SE,134,11.5,11.5,83,0.00,CLR,,0.00,WeatherDisplay:10.37,2013-05-29 04:56:00,